Flag for U.S.A. Weather past 2 weeks in Hialeah, Florida, U.S.A.

Now
86 °F

Sunny.


Feels Like: 96 °F
Forecast: 78 / 90 °F
Wind: 9 mph from East

Location: Opa Locka Airport

Current Time: Sep 2, 2015 at 8:05:00 PM

Latest Report: Sep 2, 2015 at 6:53 PM


Visibility: 10 mi

Pressure: 29.99 "Hg

Humidity: 72%

Dew point: 76 °F

Location of HialeahLocation

Historic Weather in Hialeah — Graph

°F

Hialeah temperature yesterday

Maximum temperature yesterday: 92 °F (at 12:53 PM)
Minimum temperature yesterday: 79 °F (at 5:53 AM)
Average temperature yesterday: 85 °F

Past Weeks' High & Low Weather Summary

 TemperatureHumidityPressure
High93 °F (Aug 22, 12:53 PM)100% (Aug 29, 11:53 PM)30.10 "Hg (Aug 29, 11:53 PM)
Low73 °F (Aug 30, 3:53 AM)52% (Aug 27, 3:53 PM)29.88 "Hg (Aug 24, 5:53 PM)
Average84 °F76%29.99 "Hg
* Reported Aug 18 6:53 PM — Sep 2 6:53 PM, Hialeah, Weather by CustomWeather, © 2015

Note: Actual official high and low records may vary slightly from our data, if they occured in-between our weather recording intervals... More about our weather records

Advertising

Hialeah weather history for previous 24 hours

 ConditionsComfort  
Time TempWeatherWind HumidityBarometerVisibility
6:53 PM
Wed, Sep 2
86 °FSunny.9 mph72%29.99 "Hg10 mi
5:53 PM89 °FSunny.10 mph61%29.99 "Hg10 mi
4:53 PM90 °FScattered clouds.10 mph59%29.99 "Hg10 mi
3:53 PM91 °FPassing clouds.3 mph60%30.01 "Hg10 mi
2:53 PM90 °FSunny.No wind63%30.03 "Hg10 mi
1:53 PM80 °FStrong thunderstorms. Cloudy.13 mph81%30.07 "Hg6 mi
12:53 PM87 °FMostly cloudy.12 mph67%30.07 "Hg10 mi
11:53 AM90 °FPassing clouds.7 mph63%30.09 "Hg10 mi
10:53 AM87 °FLight rain. Broken clouds.7 mph72%30.10 "Hg10 mi
9:53 AM84 °FBroken clouds.No wind83%30.09 "Hg10 mi
8:53 AM84 °FLight rain. Cloudy.No wind83%30.09 "Hg10 mi
7:53 AM82 °FPartly cloudy.5 mph88%30.07 "Hg10 mi
6:53 AM82 °FPassing clouds.No wind85%30.06 "Hg10 mi
5:53 AM82 °FClear.No wind85%30.05 "Hg10 mi
4:53 AM82 °FPassing clouds.5 mph85%30.03 "Hg10 mi
3:53 AM83 °FPassing clouds.5 mph82%30.03 "Hg10 mi
2:53 AM83 °FPassing clouds.No wind82%30.05 "Hg10 mi
1:53 AM82 °FClear.8 mph85%30.05 "Hg10 mi
12:53 AM82 °FClear.5 mph85%30.07 "Hg10 mi
11:53 PM
Tue, Sep 1
83 °FClear.3 mph82%30.09 "Hg10 mi
10:53 PM84 °FPartly cloudy.No wind77%30.09 "Hg10 mi
9:53 PM84 °FPassing clouds.3 mph74%30.09 "Hg10 mi
8:53 PM83 °FClear.3 mph77%30.07 "Hg10 mi
Weather by CustomWeather, © 2015

See weather overviewHow to use our weather pages